Regional Weather Roundup
Issued by NWS Cleveland, OH

Home | Current Version | Previous Version | Text Only | Print | Product List | Glossary Off
Versions: 1 2 3 4 5 6 7 8 9 10 11 12 13 14 15 16 17 18 19 20 21 22 23 24 25 26 27 28 29 30 31 32 33 34 35 36 37 38 39 40 41 42 43 44 45 46 47 48 49 50

000
ASUS41 KCLE 230902
RWRCLE
OHIO REGIONAL WEATHER ROUNDUP
NATIONAL WEATHER SERVICE CLEVELAND, OH
500 AM EDT SAT MAY 23 2015

NOTE: "FAIR" INDICATES FEW OR NO CLOUDS BELOW 12,000 FEET WITH NO
SIGNIFICANT WEATHER AND/OR OBSTRUCTIONS TO VISIBILITY.

OHZ001>008-015>018-024>027-034-035-043-044-231000-
   NORTHWEST OHIO

CITY           SKY/WX    TMP DP  RH WIND       PRES   REMARKS
DEFIANCE       MOCLDY    48  38  68 NE3       30.34R
FINDLAY        MOCLDY    50  36  58 CALM      30.33R
TOLEDO EXPRESS PTCLDY    44  41  89 CALM      30.34R
TOLEDO EXEC    PTCLDY    47  43  86 CALM      30.35R
LIMA           PTCLDY    45  37  73 E3        30.33R
$$

OHZ009>014-019>023-028>033-038-089-231000-
   NORTHEAST OHIO

CITY           SKY/WX    TMP DP  RH WIND       PRES   REMARKS
CLE-HOPKINS    MOCLDY    41  33  73 CALM      30.37R
CLE-LAKEFRONT  PTCLDY    46  30  53 SE7       30.35R
CUY CO. ARPT   NOT AVBL
LORAIN-ELYRIA  PTCLDY    41  35  79 S3        30.37R
ASHTABULA      CLEAR     34  32  92 CALM      30.37R
AKRON-CANTON   PTCLDY    45  30  55 SE5       30.36R
WOOSTER        CLEAR     38  32  79 CALM      30.37R
MANSFIELD      CLEAR     40  35  83 S7        30.35R
YOUNGSTOWN     PTCLDY    35  30  82 CALM      30.36R
$$

OHZ042-051>053-060>062-070>072-077>081-231000-
  SOUTHWEST OHIO

CITY           SKY/WX    TMP DP  RH WIND       PRES   REMARKS
CINC-COVINGTON MOCLDY    50  46  86 CALM      30.32R
CINC-LUNKEN    MOCLDY    47  47 100 CALM      30.33R
HAMILTON       MOCLDY    47  46  97 CALM      30.33R
DAYTON         PTCLDY    50  38  63 SE8       30.34R
WRIGHT-PAT AFB PTCLDY    46  43  90 NW2       30.33R
DAYTON GENERAL MOCLDY    54  40  59 E8        30.32R
WILMINGTON     MOCLDY    50  40  68 NE5       30.33R
$$

OHZ036-037-039>041-045>050-054>059-063>069-073>076-082>088-231000-
  CENTRAL AND SOUTHEAST OHIO

CITY           SKY/WX    TMP DP  RH WIND       PRES   REMARKS
COLUMBUS       PTCLDY    50  35  56 CALM      30.34R
OSU AIRPORT    CLEAR     48  34  58 CALM      30.34R
BOLTON FIELD   NOT AVBL
RICKENBACK AFB NOT AVBL
NEWARK         CLEAR     41  39  93 CALM      30.35R
MARION         PTCLDY    46  34  62 CALM      30.35R
LANCASTER      CLEAR     43  39  86 CALM      30.35R
ZANESVILLE     CLEAR     41  36  82 CALM      30.36R
NEW PHILLY     CLEAR     41  36  82 CALM      30.37R
$$


USA.gov is the U.S. government's official web portal to all federal, state and local government web resources and services.